sat.trackr.live / text

‹ back to catalog

STARLINK-11352 [DTC]

NORAD 62880 · 2025-024B

PAYLOAD ACTIVE UNKNOWN

§ Identity

Operator
Country
US
Launch date
2025-02-04
Launch site
AFETR
Launch vehicle
Mass (kg)
RCS (m²)

Purposes: comms

External: N2YO · Heavens-Above · Gunter

§ Orbital elements

Epoch: 2026-09-21T19:24:32.262336Z

Period
91.67 min
Inclination
43.0009°
Eccentricity
0.0003223
Mean motion
15.70859362 rev/d
Perigee alt
354.3 km
Apogee alt
358.6 km
Semi-major
6,734.6 km
B*
1.0099e-3
RAAN
79.0882°
Arg perigee
293.5270°
Mean anomaly
66.5259°
Rev number
9,431

§ Raw data

STARLINK-11352 [DTC]1 62880U 25024B   26264.80870674  .00131327  00000+0  10099-2 0  99942 62880  43.0009  79.0882 0003223 293.5270  66.5259 15.70859362 94310

JSON: /api/v1/satellites/62880 · /tle

For live sub-satellite position, see the globe view (requires WebGL).

§ Visibility from observer

Set your observer location to see the next 7 days of passes ≥ 10°. The values pass through the URL so the page stays shareable.

No JS? Fill the form by hand. The geolocation button needs JavaScript.